timestamp,waterbody_station,lease,latitude,longitude,deployment_start_date,deployment_end_date,sensor,depth,mooring,Temperature_degrees Celsius,Dissolved Oxygen_percent saturation
2017-11-06T00:00:00,Caribou Harbour-Waterside,1351.0,45.75625,-62.770311,2017-06-24,2017-11-28,HOBO-10755242,1.0,float,8.369,
2017-11-06T00:15:00,Caribou Harbour-Waterside,1351.0,45.75625,-62.770311,2017-06-24,2017-11-28,HOBO-10755242,1.0,float,8.519,
2017-11-06T00:30:00,Caribou Harbour-Waterside,1351.0,45.75625,-62.770311,2017-06-24,2017-11-28,HOBO-10755242,1.0,float,8.494,
2017-11-06T00:45:00,Caribou Harbour-Waterside,1351.0,45.75625,-62.770311,2017-06-24,2017-11-28,HOBO-10755242,1.0,float,8.568,
2017-11-06T01:00:00,Caribou Harbour-Waterside,1351.0,45.75625,-62.770311,2017-06-24,2017-11-28,HOBO-10755242,1.0,float,8.668,
2017-11-06T01:15:00,Caribou Harbour-Waterside,1351.0,45.75625,-62.770311,2017-06-24,2017-11-28,HOBO-10755242,1.0,float,8.717,
2017-11-06T01:30:00,Caribou Harbour-Waterside,1351.0,45.75625,-62.770311,2017-06-24,2017-11-28,HOBO-10755242,1.0,float,8.767,
2017-11-06T01:45:00,Caribou Harbour-Waterside,1351.0,45.75625,-62.770311,2017-06-24,2017-11-28,HOBO-10755242,1.0,float,8.817,
2017-11-06T02:00:00,Caribou Harbour-Waterside,1351.0,45.75625,-62.770311,2017-06-24,2017-11-28,HOBO-10755242,1.0,float,8.841,
2017-11-06T02:15:00,Caribou Harbour-Waterside,1351.0,45.75625,-62.770311,2017-06-24,2017-11-28,HOBO-10755242,1.0,float,8.866,
2017-11-06T02:30:00,Caribou Harbour-Waterside,1351.0,45.75625,-62.770311,2017-06-24,2017-11-28,HOBO-10755242,1.0,float,8.866,
2017-11-06T02:45:00,Caribou Harbour-Waterside,1351.0,45.75625,-62.770311,2017-06-24,2017-11-28,HOBO-10755242,1.0,float,8.866,
2017-11-06T03:00:00,Caribou Harbour-Waterside,1351.0,45.75625,-62.770311,2017-06-24,2017-11-28,HOBO-10755242,1.0,float,8.866,
2017-11-06T03:15:00,Caribou Harbour-Waterside,1351.0,45.75625,-62.770311,2017-06-24,2017-11-28,HOBO-10755242,1.0,float,8.817,
2017-11-06T03:30:00,Caribou Harbour-Waterside,1351.0,45.75625,-62.770311,2017-06-24,2017-11-28,HOBO-10755242,1.0,float,8.693,
2017-11-06T03:45:00,Caribou Harbour-Waterside,1351.0,45.75625,-62.770311,2017-06-24,2017-11-28,HOBO-10755242,1.0,float,8.469,
2017-11-06T04:00:00,Caribou Harbour-Waterside,1351.0,45.75625,-62.770311,2017-06-24,2017-11-28,HOBO-10755242,1.0,float,8.344,
2017-11-06T04:15:00,Caribou Harbour-Waterside,1351.0,45.75625,-62.770311,2017-06-24,2017-11-28,HOBO-10755242,1.0,float,8.195,
2017-11-06T04:30:00,Caribou Harbour-Waterside,1351.0,45.75625,-62.770311,2017-06-24,2017-11-28,HOBO-10755242,1.0,float,8.095,
2017-11-06T04:45:00,Caribou Harbour-Waterside,1351.0,45.75625,-62.770311,2017-06-24,2017-11-28,HOBO-10755242,1.0,float,7.87,
2017-11-06T05:00:00,Caribou Harbour-Waterside,1351.0,45.75625,-62.770311,2017-06-24,2017-11-28,HOBO-10755242,1.0,float,7.77,
2017-11-06T05:15:00,Caribou Harbour-Waterside,1351.0,45.75625,-62.770311,2017-06-24,2017-11-28,HOBO-10755242,1.0,float,7.67,
2017-11-06T05:30:00,Caribou Harbour-Waterside,1351.0,45.75625,-62.770311,2017-06-24,2017-11-28,HOBO-10755242,1.0,float,7.569,
2017-11-06T05:45:00,Caribou Harbour-Waterside,1351.0,45.75625,-62.770311,2017-06-24,2017-11-28,HOBO-10755242,1.0,float,7.494,
2017-11-06T06:00:00,Caribou Harbour-Waterside,1351.0,45.75625,-62.770311,2017-06-24,2017-11-28,HOBO-10755242,1.0,float,7.469,
2017-11-06T06:15:00,Caribou Harbour-Waterside,1351.0,45.75625,-62.770311,2017-06-24,2017-11-28,HOBO-10755242,1.0,float,7.469,
2017-11-06T06:30:00,Caribou Harbour-Waterside,1351.0,45.75625,-62.770311,2017-06-24,2017-11-28,HOBO-10755242,1.0,float,7.444,
2017-11-06T06:45:00,Caribou Harbour-Waterside,1351.0,45.75625,-62.770311,2017-06-24,2017-11-28,HOBO-10755242,1.0,float,7.469,
2017-11-06T07:00:00,Caribou Harbour-Waterside,1351.0,45.75625,-62.770311,2017-06-24,2017-11-28,HOBO-10755242,1.0,float,7.494,
2017-11-06T07:15:00,Caribou Harbour-Waterside,1351.0,45.75625,-62.770311,2017-06-24,2017-11-28,HOBO-10755242,1.0,float,7.544,
2017-11-06T07:30:00,Caribou Harbour-Waterside,1351.0,45.75625,-62.770311,2017-06-24,2017-11-28,HOBO-10755242,1.0,float,7.645,
2017-11-06T07:45:00,Caribou Harbour-Waterside,1351.0,45.75625,-62.770311,2017-06-24,2017-11-28,HOBO-10755242,1.0,float,7.745,
2017-11-06T08:00:00,Caribou Harbour-Waterside,1351.0,45.75625,-62.770311,2017-06-24,2017-11-28,HOBO-10755242,1.0,float,7.845,
2017-11-06T08:15:00,Caribou Harbour-Waterside,1351.0,45.75625,-62.770311,2017-06-24,2017-11-28,HOBO-10755242,1.0,float,7.995,
2017-11-06T08:30:00,Caribou Harbour-Waterside,1351.0,45.75625,-62.770311,2017-06-24,2017-11-28,HOBO-10755242,1.0,float,8.07,
2017-11-06T08:45:00,Caribou Harbour-Waterside,1351.0,45.75625,-62.770311,2017-06-24,2017-11-28,HOBO-10755242,1.0,float,8.145,
2017-11-06T09:00:00,Caribou Harbour-Waterside,1351.0,45.75625,-62.770311,2017-06-24,2017-11-28,HOBO-10755242,1.0,float,8.22,
2017-11-06T09:15:00,Caribou Harbour-Waterside,1351.0,45.75625,-62.770311,2017-06-24,2017-11-28,HOBO-10755242,1.0,float,8.344,
2017-11-06T09:30:00,Caribou Harbour-Waterside,1351.0,45.75625,-62.770311,2017-06-24,2017-11-28,HOBO-10755242,1.0,float,8.444,
2017-11-06T09:45:00,Caribou Harbour-Waterside,1351.0,45.75625,-62.770311,2017-06-24,2017-11-28,HOBO-10755242,1.0,float,8.593,
2017-11-06T10:00:00,Caribou Harbour-Waterside,1351.0,45.75625,-62.770311,2017-06-24,2017-11-28,HOBO-10755242,1.0,float,8.767,
2017-11-06T10:15:00,Caribou Harbour-Waterside,1351.0,45.75625,-62.770311,2017-06-24,2017-11-28,HOBO-10755242,1.0,float,8.941,
2017-11-06T10:30:00,Caribou Harbour-Waterside,1351.0,45.75625,-62.770311,2017-06-24,2017-11-28,HOBO-10755242,1.0,float,9.089,
2017-11-06T10:45:00,Caribou Harbour-Waterside,1351.0,45.75625,-62.770311,2017-06-24,2017-11-28,HOBO-10755242,1.0,float,9.312,
2017-11-06T11:00:00,Caribou Harbour-Waterside,1351.0,45.75625,-62.770311,2017-06-24,2017-11-28,HOBO-10755242,1.0,float,9.534,
2017-11-06T11:15:00,Caribou Harbour-Waterside,1351.0,45.75625,-62.770311,2017-06-24,2017-11-28,HOBO-10755242,1.0,float,9.78,
2017-11-06T11:30:00,Caribou Harbour-Waterside,1351.0,45.75625,-62.770311,2017-06-24,2017-11-28,HOBO-10755242,1.0,float,9.977,
2017-11-06T11:45:00,Caribou Harbour-Waterside,1351.0,45.75625,-62.770311,2017-06-24,2017-11-28,HOBO-10755242,1.0,float,10.271,
2017-11-06T12:00:00,Caribou Harbour-Waterside,1351.0,45.75625,-62.770311,2017-06-24,2017-11-28,HOBO-10755242,1.0,float,10.565,
2017-11-06T12:15:00,Caribou Harbour-Waterside,1351.0,45.75625,-62.770311,2017-06-24,2017-11-28,HOBO-10755242,1.0,float,10.785,
2017-11-06T12:30:00,Caribou Harbour-Waterside,1351.0,45.75625,-62.770311,2017-06-24,2017-11-28,HOBO-10755242,1.0,float,11.053,
2017-11-06T12:45:00,Caribou Harbour-Waterside,1351.0,45.75625,-62.770311,2017-06-24,2017-11-28,HOBO-10755242,1.0,float,11.346,
2017-11-06T13:00:00,Caribou Harbour-Waterside,1351.0,45.75625,-62.770311,2017-06-24,2017-11-28,HOBO-10755242,1.0,float,11.589,
2017-11-06T13:15:00,Caribou Harbour-Waterside,1351.0,45.75625,-62.770311,2017-06-24,2017-11-28,HOBO-10755242,1.0,float,11.637,
2017-11-06T13:30:00,Caribou Harbour-Waterside,1351.0,45.75625,-62.770311,2017-06-24,2017-11-28,HOBO-10755242,1.0,float,11.904,
2017-11-06T13:45:00,Caribou Harbour-Waterside,1351.0,45.75625,-62.770311,2017-06-24,2017-11-28,HOBO-10755242,1.0,float,12.219,
2017-11-06T14:00:00,Caribou Harbour-Waterside,1351.0,45.75625,-62.770311,2017-06-24,2017-11-28,HOBO-10755242,1.0,float,10.956,
2017-11-06T14:15:00,Caribou Harbour-Waterside,1351.0,45.75625,-62.770311,2017-06-24,2017-11-28,HOBO-10755242,1.0,float,10.075,
2017-11-06T14:30:00,Caribou Harbour-Waterside,1351.0,45.75625,-62.770311,2017-06-24,2017-11-28,HOBO-10755242,1.0,float,9.903,
2017-11-06T14:45:00,Caribou Harbour-Waterside,1351.0,45.75625,-62.770311,2017-06-24,2017-11-28,HOBO-10755242,1.0,float,9.879,
2017-11-06T15:00:00,Caribou Harbour-Waterside,1351.0,45.75625,-62.770311,2017-06-24,2017-11-28,HOBO-10755242,1.0,float,9.903,
2017-11-06T15:15:00,Caribou Harbour-Waterside,1351.0,45.75625,-62.770311,2017-06-24,2017-11-28,HOBO-10755242,1.0,float,9.952,
2017-11-06T15:30:00,Caribou Harbour-Waterside,1351.0,45.75625,-62.770311,2017-06-24,2017-11-28,HOBO-10755242,1.0,float,10.124,
2017-11-06T15:45:00,Caribou Harbour-Waterside,1351.0,45.75625,-62.770311,2017-06-24,2017-11-28,HOBO-10755242,1.0,float,10.247,
2017-11-06T16:00:00,Caribou Harbour-Waterside,1351.0,45.75625,-62.770311,2017-06-24,2017-11-28,HOBO-10755242,1.0,float,10.32,
2017-11-06T16:15:00,Caribou Harbour-Waterside,1351.0,45.75625,-62.770311,2017-06-24,2017-11-28,HOBO-10755242,1.0,float,10.418,
2017-11-06T16:30:00,Caribou Harbour-Waterside,1351.0,45.75625,-62.770311,2017-06-24,2017-11-28,HOBO-10755242,1.0,float,10.541,
2017-11-06T16:45:00,Caribou Harbour-Waterside,1351.0,45.75625,-62.770311,2017-06-24,2017-11-28,HOBO-10755242,1.0,float,10.638,
2017-11-06T17:00:00,Caribou Harbour-Waterside,1351.0,45.75625,-62.770311,2017-06-24,2017-11-28,HOBO-10755242,1.0,float,10.785,
2017-11-06T17:15:00,Caribou Harbour-Waterside,1351.0,45.75625,-62.770311,2017-06-24,2017-11-28,HOBO-10755242,1.0,float,10.858,
2017-11-06T17:30:00,Caribou Harbour-Waterside,1351.0,45.75625,-62.770311,2017-06-24,2017-11-28,HOBO-10755242,1.0,float,11.443,
2017-11-06T17:45:00,Caribou Harbour-Waterside,1351.0,45.75625,-62.770311,2017-06-24,2017-11-28,HOBO-10755242,1.0,float,11.492,
2017-11-06T18:00:00,Caribou Harbour-Waterside,1351.0,45.75625,-62.770311,2017-06-24,2017-11-28,HOBO-10755242,1.0,float,11.492,
2017-11-06T18:15:00,Caribou Harbour-Waterside,1351.0,45.75625,-62.770311,2017-06-24,2017-11-28,HOBO-10755242,1.0,float,11.783,
2017-11-06T18:30:00,Caribou Harbour-Waterside,1351.0,45.75625,-62.770311,2017-06-24,2017-11-28,HOBO-10755242,1.0,float,12.219,
2017-11-06T18:45:00,Caribou Harbour-Waterside,1351.0,45.75625,-62.770311,2017-06-24,2017-11-28,HOBO-10755242,1.0,float,12.243,
2017-11-06T19:00:00,Caribou Harbour-Waterside,1351.0,45.75625,-62.770311,2017-06-24,2017-11-28,HOBO-10755242,1.0,float,12.606,
2017-11-06T19:15:00,Caribou Harbour-Waterside,1351.0,45.75625,-62.770311,2017-06-24,2017-11-28,HOBO-10755242,1.0,float,12.871,
2017-11-06T19:30:00,Caribou Harbour-Waterside,1351.0,45.75625,-62.770311,2017-06-24,2017-11-28,HOBO-10755242,1.0,float,13.233,
2017-11-06T19:45:00,Caribou Harbour-Waterside,1351.0,45.75625,-62.770311,2017-06-24,2017-11-28,HOBO-10755242,1.0,float,14.074,
2017-11-06T20:00:00,Caribou Harbour-Waterside,1351.0,45.75625,-62.770311,2017-06-24,2017-11-28,HOBO-10755242,1.0,float,14.745,
2017-11-06T20:15:00,Caribou Harbour-Waterside,1351.0,45.75625,-62.770311,2017-06-24,2017-11-28,HOBO-10755242,1.0,float,14.745,
2017-11-06T20:30:00,Caribou Harbour-Waterside,1351.0,45.75625,-62.770311,2017-06-24,2017-11-28,HOBO-10755242,1.0,float,14.984,
2017-11-06T20:45:00,Caribou Harbour-Waterside,1351.0,45.75625,-62.770311,2017-06-24,2017-11-28,HOBO-10755242,1.0,float,15.151,
2017-11-06T21:00:00,Caribou Harbour-Waterside,1351.0,45.75625,-62.770311,2017-06-24,2017-11-28,HOBO-10755242,1.0,float,15.199,
2017-11-06T21:15:00,Caribou Harbour-Waterside,1351.0,45.75625,-62.770311,2017-06-24,2017-11-28,HOBO-10755242,1.0,float,15.199,
2017-11-06T21:30:00,Caribou Harbour-Waterside,1351.0,45.75625,-62.770311,2017-06-24,2017-11-28,HOBO-10755242,1.0,float,15.055,
2017-11-06T21:45:00,Caribou Harbour-Waterside,1351.0,45.75625,-62.770311,2017-06-24,2017-11-28,HOBO-10755242,1.0,float,15.008,
2017-11-06T22:00:00,Caribou Harbour-Waterside,1351.0,45.75625,-62.770311,2017-06-24,2017-11-28,HOBO-10755242,1.0,float,14.984,
2017-11-06T22:15:00,Caribou Harbour-Waterside,1351.0,45.75625,-62.770311,2017-06-24,2017-11-28,HOBO-10755242,1.0,float,14.337,
2017-11-06T22:30:00,Caribou Harbour-Waterside,1351.0,45.75625,-62.770311,2017-06-24,2017-11-28,HOBO-10755242,1.0,float,13.81,
2017-11-06T22:45:00,Caribou Harbour-Waterside,1351.0,45.75625,-62.770311,2017-06-24,2017-11-28,HOBO-10755242,1.0,float,13.618,
2017-11-06T23:00:00,Caribou Harbour-Waterside,1351.0,45.75625,-62.770311,2017-06-24,2017-11-28,HOBO-10755242,1.0,float,13.473,
2017-11-06T23:15:00,Caribou Harbour-Waterside,1351.0,45.75625,-62.770311,2017-06-24,2017-11-28,HOBO-10755242,1.0,float,13.137,
2017-11-06T23:30:00,Caribou Harbour-Waterside,1351.0,45.75625,-62.770311,2017-06-24,2017-11-28,HOBO-10755242,1.0,float,12.654,
2017-11-06T23:45:00,Caribou Harbour-Waterside,1351.0,45.75625,-62.770311,2017-06-24,2017-11-28,HOBO-10755242,1.0,float,12.461,
